CAPE
2 2 2 1 2 2 2 2 1 1 1 2 2 2 2 4 0 0 0 0 0 0 0 0 0 0 0 0 0 0 0 0 0 0 0 0 0 0 0 0 0 0 0 5 296
2 2 1 1 0 0 1 0 1 1 1 2 2 4 3 0 0 0 0 0 0 0 0 0 0 0 0 0 0 0 0 0 0 0 0 0 0 0 0 0 0 0 0 0 122
4 2 2 2 2 1 2 1 1 1 0 0 2 6 5 0 0 0 0 0 0 0 0 0 0 0 0 0 0 0 0 0 0 0 0 0 0 0 0 0 0 0 0 0 41
3 2 2 2 1 1 0 1 2 2 2 4 9 7 13 0 0 0 0 0 0 0 0 0 0 0 0 0 0 0 0 0 0 0 0 0 0 0 0 0 0 0 0 0 0
1 1 1 1 1 1 0 0 0 1 3 5 5 11 15 0 0 0 0 0 0 0 0 0 0 0 0 0 0 0 0 0 0 0 0 0 0 0 0 0 0 0 0 0 0
1 1 3 5 3 3 4 4 0 0 3 4 9 13 15 0 0 0 0 0 0 0 0 0 0 0 0 0 0 0 0 0 0 0 0 0 0 0 0 0 0 0 0 0 0
0 1 5 2 3 1 1 1 0 1 0 1 4 6 17 0 0 0 0 0 0 0 0 0 0 0 0 0 0 0 0 0 0 0 0 0 0 0 0 0 0 0 0 0 0
1 4 4 4 4 3 1 0 0 0 0 0 4 8 3 0 0 0 0 0 0 0 0 0 1 0 0 0 0 0 0 0 0 0 0 0 0 0 0 0 0 0 0 0 0
4 4 4 5 5 4 0 0 0 0 0 0 6 3 0 0 0 0 0 0 0 0 0 0 0 0 0 0 0 0 0 0 0 0 0 0 0 0 0 0 0 0 0 0 0
5 3 3 4 4 3 0 0 0 0 0 0 0 1 0 0 0 2 4 39 37 1 0 16 8 3 6 0 0 0 0 0 0 0 0 0 0 0 0 0 0 0 0 0 0
3 2 4 7 4 0 0 0 0 0 4 0 0 0 0 0 0 0 11 0 93 38 0 1 29 24 0 0 0 0 0 0 0 0 0 0 0 0 0 0 0 0 0 0 0
1 2 3 1 1 0 0 0 0 1 0 0 0 0 0 0 0 3 0 3 47 11 25 5 0 0 0 1 0 0 0 0 0 0 0 0 0 0 0 0 0 0 0 0 0
1 1 4 1 0 0 0 0 0 3 3 0 0 0 0 0 5 4 1 0 66 51 58 31 0 0 0 11 8 0 0 0 0 0 0 0 0 0 0 0 0 0 0 0 0
1 0 3 0 0 0 0 0 1 1 0 0 0 0 0 15 6 2 1 0 10 49 39 66 0 0 0 9 11 12 0 1 2 0 0 0 0 0 0 0 0 0 0 0 0
1 0 0 0 0 0 0 0 1 7 8 0 0 0 20 5 6 3 2 1 2 8 9 23 36 20 0 0 1 3 2 4 15 6 0 0 0 0 0 0 0 0 0 0 0
0 0 0 0 0 0 0 0 0 2 31 4 0 1 14 30 3 44 3 5 2 1 9 8 72 26 22 0 1 12 20 24 34 24 1 0 0 0 0 0 0 0 0 0 0
0 0 0 0 0 0 0 2 5 30 8 0 0 0 0 31 52 40 17 1 0 0 0 0 0 32 24 14 4 10 31 28 28 17 0 0 0 0 0 0 0 0 0 0 0
0 0 0 0 0 0 0 0 24 10 4 0 0 0 4 14 9 1 1 3 2 4 1 6 0 3 46 31 26 36 38 39 3 0 0 0 0 0 0 0 0 0 0 0 0
0 0 0 0 0 0 9 43 8 8 12 6 0 3 6 13 0 4 8 2 1 3 5 21 8 12 33 96 33 48 63 2 0 0 2 3 63 276 0 0 2 0 0 0 0
0 0 0 0 0 0 14 0 2 0 9 6 0 7 3 5 2 4 6 8 3 13 3 18 2 7 32 101 74 96 12 41 13 9 9 24 20 7 0 2 0 0 0 2 34
0 0 0 0 0 0 2 4 1 2 2 1 0 1 3 4 2 4 3 1 3 2 7 10 28 5 53 68 67 63 65 75 15 20 31 29 32 62 0 0 0 1 2 4 6
0 0 0 0 0 0 0 0 0 2 6 4 4 1 0 1 0 6 2 1 6 9 4 1 50 1 17 113 44 59 42 32 9 0 14 18 155 99 7 4 7 5 9 12 6
0 0 0 0 0 1 2 0 10 3 3 11 7 8 1 0 0 12 5 7 7 6 3 3 4 19 33 68 11 41 94 8 31 32 44 38 232 115 1 3 5 1 4 9 10
0 0 0 0 2 2 3 7 4 7 1 8 4 6 2 1 4 1 5 2 6 9 8 9 3 38 10 4 6 7 77 31 39 14 42 67 25 3 4 4 3 1 3 6 5
0 0 0 0 0 1 1 2 4 8 3 4 2 4 5 0 1 9 2 2 2 12 3 0 0 12 38 54 35 28 46 96 69 19 57 103 8 3 3 2 7 3 1 1 0
0 3 1 1 2 16 3 4 0 2 6 1 1 12 7 2 4 1 3 1 2 2 3 5 53 14 0 22 177 60 144 49 79 136 71 111 56 5 2 3 1 1 1 0 0
9 11 4 0 1 2 1 1 5 6 0 8 9 7 8 10 12 6 3 6 5 1 2 4 40 11 1 80 98 84 145 158 71 39 53 64 3 2 2 2 0 1 0 0 0
CIN
-0 -0 -0 -0 -0 -0 -0 -0 -0 -0 -0 -0 -0 -0 -0 -0 -0 -0 -0 -0 -0 -0 -0 -0 -0 -0 -0 -0 -0 -0 -0 -0 -0 -0 -0 -0 -0 -0 -0 -0 -0 -0 -0 -17 -95
-0 -0 -0 -0 -0 -0 -0 -0 -0 -0 -0 -0 -0 -0 -0 -0 -0 -0 -0 -0 -0 -0 -0 -0 -0 -0 -0 -0 -0 -0 -0 -0 -0 -0 -0 -0 -0 -0 -0 -0 -0 -0 -0 -0 -90
-0 -0 -0 -0 -0 -0 -0 -0 -0 -0 -0 -0 -0 -0 -0 -0 -0 -0 -0 -0 -0 -0 -0 -0 -0 -0 -0 -0 -0 -0 -0 -0 -0 -0 -0 -0 -0 -0 -0 -0 -0 -0 -0 -0 -59
-0 -0 -0 -0 -0 -0 -0 -0 -0 -0 -0 -0 -0 -0 -1 -0 -0 -0 -0 -0 -0 -0 -0 -0 -0 -0 -0 -0 -0 -0 -0 -0 -0 -0 -0 -0 -0 -0 -0 -0 -0 -0 -0 -0 -0
-0 -0 -0 -0 -0 -0 -0 -0 -0 -0 -0 -0 -0 -0 -1 -0 -0 -0 -0 -0 -0 -0 -0 -0 -0 -0 -0 -0 -0 -0 -0 -0 -0 -0 -0 -0 -0 -0 -0 -0 -0 -0 -0 -0 -0
-0 -0 -0 -0 -0 -0 -0 -1 -0 -0 -0 -0 -0 -0 -0 -0 -0 -0 -0 -0 -1 -0 -0 -0 -0 -0 -0 -0 -0 -0 -0 -0 -0 -0 -0 -0 -0 -0 -0 -0 -0 -0 -0 -0 -0
-0 -0 -0 -0 -0 -1 -0 -0 -0 -0 -0 -0 -0 -1 -0 -0 -0 -0 -0 -0 -0 -0 -0 -0 -0 -0 -0 -0 -0 -0 -0 -0 -0 -0 -0 -0 -0 -0 -0 -0 -0 -0 -0 -0 -0
-0 -0 -0 -0 -0 -0 -0 -0 -0 -0 -0 -0 -0 -1 -0 -0 -0 -0 -0 -0 -0 -0 -0 -0 -1 -0 -0 -0 -0 -0 -0 -0 -0 -0 -0 -0 -0 -0 -0 -0 -0 -0 -0 -0 -0
-0 -0 -0 -0 -0 -0 -0 -0 -0 -0 -0 -0 -1 -1 -0 -0 -0 -0 -0 -0 -0 -0 -0 -0 -0 -2 -0 -0 -0 -0 -0 -0 -0 -0 -0 -0 -0 -0 -0 -0 -0 -0 -0 -0 -0
-0 -0 -0 -0 -0 -0 -0 -0 -0 -0 -0 -0 -1 -1 -0 -0 -0 -2 -1 -9 -2 -2 -0 -1 -2 -4 -7 -0 -0 -0 -0 -0 -0 -0 -0 -0 -0 -0 -0 -0 -0 -0 -0 -0 -0
-0 -0 -0 -0 -0 -0 -0 -0 -0 -0 -1 -0 -0 -0 -0 -0 -0 -0 -1 -0 -1 -3 -0 -2 -2 -2 -0 -0 -0 -0 -0 -0 -0 -0 -0 -0 -0 -0 -0 -0 -0 -0 -0 -0 -0
-0 -0 -0 -0 -0 -0 -0 -0 -0 -0 -0 -0 -0 -0 -0 -0 -0 -1 -0 -3 -1 -7 -4 -6 -2 -0 -0 -5 -0 -0 -0 -0 -0 -0 -0 -0 -0 -0 -0 -0 -0 -0 -0 -0 -0
-0 -0 -0 -0 -0 -0 -0 -0 -0 -1 -0 -0 -0 -0 -2 -0 -3 -4 -0 -0 -8 -2 -2 -5 -0 -0 -0 -5 -6 -3 -0 -1 -0 -0 -0 -0 -0 -0 -0 -0 -0 -0 -0 -0 -0
-0 -0 -0 -0 -0 -0 -0 -0 -3 -2 -0 -6 -0 -0 -0 -4 -40 -46 -1 -0 -4 -3 -9 -5 -0 -1 -0 -7 -6 -5 -0 -3 -4 -0 -0 -0 -0 -0 -0 -0 -0 -0 -0 -0 -0
-0 -0 -0 -0 -0 -0 -0 -0 -2 -1 -10 -0 -0 -0 -4 -19 -37 -5 -1 -4 -2 -6 -6 -12 -5 -7 -7 -0 -4 -6 -7 -9 -8 -12 -9 -0 -0 -0 -0 -0 -0 -0 -0 -0 -0
-0 -0 -0 -0 -0 -0 -0 -0 -0 -4 -4 -2 -1 -4 -5 -11 -28 -28 -5 -1 -0 -0 -8 -6 -6 -12 -12 -4 -6 -11 -11 -6 -8 -8 -13 -0 -0 -0 -0 -0 -0 -0 -0 -0 -0
-0 -0 -0 -0 -0 -0 -0 -1 -4 -5 -5 -2 -0 -0 -0 -6 -6 -5 -0 -0 -0 -0 -2 -0 -0 -21 -9 -14 -8 -18 -14 -14 -16 -16 -0 -0 -0 -0 -0 -0 -0 -0 -0 -0 -0
-0 -0 -0 -0 -0 -0 -0 -11 -2 -3 -2 -1 -0 -0 -18 -5 -16 -1 -1 -1 -0 -0 -2 -7 -0 -61 -11 -12 -8 -15 -10 -7 -1 -0 -0 -0 -0 -0 -0 -0 -0 -0 -0 -0 -0
-0 -0 -0 -0 -0 -0 -30 -2 -1 -0 -1 -0 -0 -3 -3 -2 -0 -0 -3 -0 -0 -0 -3 -3 -6 -20 -22 -7 -14 -7 -9 -9 -1 -1 -1 -9 -12 -53 -0 -0 -187 -0 -0 -16 -2
-0 -0 -0 -0 -0 -0 -8 -0 -2 -1 -2 -0 -0 -1 -0 -1 -0 -0 -1 -0 -0 -1 -0 -9 -10 -9 -17 -6 -17 -4 -11 -5 -13 -12 -13 -11 -13 -5 -0 -26 -0 -0 -0 -89 -130
-0 -0 -0 -0 -0 -0 -1 -0 -2 -2 -3 -0 -0 -0 -0 -0 -0 -0 -0 -0 -0 -0 -1 -9 -5 -15 -8 -9 -10 -14 -13 -7 -18 -17 -8 -17 -11 -2 -0 -0 -0 -0 -1 -0 -57
-0 -0 -0 -0 -0 -0 -0 -1 -0 -2 -1 -2 -0 -0 -0 -0 -0 -0 -5 -0 -0 -0 -0 -0 -2 -1 -6 -10 -13 -8 -10 -9 -18 -5 -36 -49 -24 -2 -26 -5 -0 -1 -1 -1 -1
-0 -0 -0 -0 -0 -0 -1 -0 -3 -3 -2 -1 -0 -1 -0 -0 -0 -0 -1 -0 -0 -0 -0 -0 -3 -5 -20 -7 -64 -24 -5 -15 -9 -14 -16 -29 -0 -6 -0 -1 -0 -3 -1 -1 -3
-0 -0 -0 -0 -0 -1 -1 -1 -1 -1 -1 -1 -0 -0 -0 -0 -0 -0 -0 -1 -0 -0 -0 -0 -0 -18 -34 -15 -30 -12 -8 -10 -20 -55 -51 -38 -83 -0 -0 -0 -0 -1 -1 -1 -2
-0 -0 -0 -0 -0 -1 -2 -2 -1 -0 -1 -1 -1 -3 -0 -0 -0 -0 -0 -0 -0 -0 -0 -0 -0 -3 -33 -5 -4 -25 -81 -10 -11 -50 -11 -16 -135 -0 -0 -0 -0 -0 -1 -2 -1
-0 -0 -1 -1 -1 -5 -5 -1 -0 -0 -1 -0 -0 -1 -0 -0 -0 -0 -0 -0 -0 -0 -0 -0 -5 -9 -0 -69 -12 -36 -5 -12 -22 -15 -19 -28 -112 -1 -0 -0 -0 -0 -1 -0 -0
-1 -1 -0 -0 -2 -4 -4 -2 -1 -2 -0 -1 -1 -2 -1 -0 -0 -0 -1 -0 -1 -0 -0 -0 -2 -9 -2 -42 -6 -4 -9 -18 -53 -38 -92 -8 -0 -0 -0 -0 -0 -0 -1 -1 -3
Wind_Speed
33 34 34 34 35 34 34 34 34 33 33 34 35 37 38 40 43 43 45 34 29 25 24 24 19 18 21 26 23 22 36 43 40 38 36 31 27 28 29 34 31 27 25 14 10
34 34 35 35 35 35 36 36 36 36 36 36 36 37 38 40 45 50 44 36 32 27 26 30 28 22 26 27 27 28 34 40 34 35 38 30 27 27 28 29 28 25 20 15 12
36 37 37 37 38 38 38 37 37 38 39 40 41 39 39 39 47 35 27 32 22 22 30 32 31 27 32 30 30 30 35 30 36 35 32 26 27 28 27 31 29 28 23 18 17
38 38 38 38 38 38 39 39 39 40 41 40 40 38 39 37 40 27 24 22 18 22 28 31 32 36 38 37 32 37 39 43 40 29 30 31 29 28 29 31 24 22 22 17 18
38 39 38 37 37 38 40 40 41 40 40 40 40 38 37 40 42 39 34 26 24 23 26 28 36 38 43 39 36 42 39 35 36 40 27 29 34 33 31 26 25 21 23 21 17
36 35 35 36 37 39 39 40 40 40 41 40 37 33 37 57 40 41 42 34 34 32 33 32 33 36 41 42 44 38 41 43 37 34 33 30 32 29 31 25 26 24 24 23 21
33 35 37 39 40 41 42 42 41 42 40 36 34 31 39 45 37 43 37 37 37 38 40 36 35 33 39 41 43 37 44 40 44 33 35 30 37 32 24 22 22 27 30 29 25
36 37 40 41 42 43 44 43 42 39 34 30 26 22 36 31 31 35 41 47 41 35 38 40 37 40 37 39 32 46 43 49 36 37 32 29 42 30 28 26 28 28 25 24 24
38 39 40 41 41 42 42 40 38 30 23 19 17 16 30 23 29 27 23 38 43 43 37 36 42 41 38 41 43 39 49 51 43 31 32 31 34 34 23 24 29 24 24 22 22
39 41 42 40 41 41 39 36 27 19 11 14 18 21 15 32 26 20 22 25 30 39 43 38 39 46 47 45 52 42 44 42 43 33 32 36 39 31 24 23 24 25 20 22 21
42 43 42 41 40 38 37 36 39 25 13 22 11 12 20 24 22 13 16 28 24 31 48 44 46 53 53 51 46 41 42 43 35 35 33 38 36 32 24 27 21 22 23 20 18
41 43 42 40 38 32 28 31 33 24 22 16 5 9 5 15 15 14 2 17 16 30 37 45 57 52 46 47 50 50 46 41 38 29 32 34 36 26 26 23 21 21 18 17 14
42 43 41 39 33 27 27 29 28 30 24 15 10 13 10 14 11 2 8 8 19 28 32 45 53 50 50 48 49 48 49 40 34 28 33 36 37 34 29 22 20 21 18 18 16
42 42 39 37 28 30 25 31 27 25 22 28 19 17 11 8 4 6 10 13 21 33 25 34 43 44 56 52 47 49 44 39 30 31 39 36 41 35 31 31 27 23 21 17 14
42 42 36 30 30 27 27 29 26 19 22 30 24 15 8 7 19 5 6 10 15 29 38 35 43 44 45 56 48 46 36 40 31 36 33 34 39 33 32 32 28 24 20 17 13
43 38 32 28 22 24 20 21 20 22 25 24 21 15 14 15 10 12 10 12 11 17 32 45 37 43 42 42 50 41 35 37 34 35 39 36 38 37 28 32 26 23 20 17 13
42 33 26 25 29 23 22 15 18 31 19 17 24 23 8 3 3 10 8 8 8 12 22 40 44 38 38 35 45 42 39 41 39 39 45 31 35 30 23 24 22 20 19 18 14
40 27 22 23 25 20 11 10 20 36 24 16 21 15 8 2 4 6 6 5 10 15 16 25 40 41 34 41 41 45 40 45 46 44 40 31 37 30 8 14 24 18 17 14 13
36 27 23 33 25 18 9 19 27 13 26 27 23 10 10 9 8 3 5 7 9 20 17 23 31 27 35 31 42 46 49 43 36 36 32 30 21 11 17 14 11 14 14 13 13
36 28 27 34 20 17 20 15 9 16 11 25 11 13 12 11 11 11 4 15 5 19 21 20 33 17 27 27 36 40 46 47 47 41 43 32 29 29 25 21 18 16 15 15 11
30 29 33 28 15 23 22 6 9 8 18 22 21 13 5 11 4 2 8 3 5 17 22 16 27 36 24 37 39 39 44 49 45 34 40 31 31 23 23 22 19 16 14 13 11
31 35 32 30 33 27 28 20 8 16 16 30 16 7 8 11 6 4 3 10 6 14 17 16 24 32 15 23 43 36 42 45 42 44 38 24 23 17 18 16 15 14 14 12 10
36 30 27 29 31 31 25 15 20 24 21 31 25 13 2 5 7 10 11 20 6 16 11 21 21 31 30 31 42 38 42 44 41 36 36 27 22 11 12 15 15 16 14 12 11
34 36 31 23 24 28 23 22 23 22 9 11 25 27 15 17 9 4 6 5 20 14 17 24 22 35 40 36 27 39 37 41 39 37 29 27 21 16 13 18 17 15 14 13 12
36 35 30 29 26 19 26 17 26 24 9 8 25 27 24 17 14 9 6 10 10 10 14 26 26 35 34 36 45 41 38 40 40 33 28 16 18 20 18 19 18 16 15 14 13
36 36 29 21 19 19 24 24 21 24 23 14 29 32 23 15 13 15 12 12 9 10 15 23 25 34 33 34 41 46 42 38 31 31 19 20 15 17 18 18 18 16 15 14 12
30 27 27 22 24 19 23 21 22 21 4 22 31 28 23 21 22 18 14 16 15 13 15 16 29 27 34 37 45 48 47 36 21 26 23 25 18 21 22 20 18 17 14 13 10
Wind_Direction
2 359 355 351 349 348 347 344 341 339 336 331 326 318 313 307 300 293 282 284 289 280 285 283 277 261 260 262 258 260 259 256 258 260 263 265 265 265 265 262 261 264 260 280 280
1 359 354 352 349 347 343 339 336 333 330 327 324 320 317 313 302 288 288 286 279 278 268 270 266 261 253 256 252 250 256 256 262 264 261 264 265 264 259 259 258 258 250 276 270
355 352 351 348 345 342 340 338 334 331 327 322 318 317 315 314 304 302 314 298 270 267 269 268 263 257 255 254 245 247 251 264 261 264 266 265 264 261 258 257 256 254 257 266 261
354 354 352 349 347 344 341 337 333 329 325 322 319 317 313 307 293 309 320 317 295 279 268 259 255 252 252 249 248 252 256 256 258 267 266 261 264 264 259 258 269 258 257 257 259
357 354 354 353 351 346 341 337 333 329 326 322 317 314 311 296 286 293 296 294 287 278 265 258 250 250 249 252 249 249 254 260 261 258 265 266 262 261 261 262 264 265 258 265 272
2 0 357 353 349 344 341 337 333 330 327 323 319 313 302 290 295 289 286 280 276 271 264 259 258 251 256 250 250 253 254 256 261 258 260 262 263 263 260 263 258 259 260 263 264
3 359 355 351 347 344 340 337 334 330 329 326 320 314 303 296 300 288 284 276 272 266 262 257 255 253 248 251 251 255 252 255 251 257 256 259 260 256 258 258 257 262 262 263 260
2 358 354 350 347 344 341 337 334 332 333 334 335 325 309 316 319 296 281 272 269 265 260 257 254 254 249 251 254 248 252 249 251 249 253 252 257 258 257 255 258 262 262 259 258
0 357 353 350 347 345 342 338 334 336 343 352 358 351 328 350 325 320 302 275 262 258 262 256 249 246 248 243 242 245 243 246 250 246 246 245 257 258 259 248 256 257 258 258 259
359 356 353 350 348 346 344 340 338 346 358 350 352 346 346 334 336 333 325 299 271 253 250 247 243 240 239 235 235 234 242 247 245 243 242 246 250 262 252 258 250 254 254 256 256
359 356 354 351 349 348 351 354 358 359 9 336 313 322 332 343 344 311 303 302 275 252 239 237 236 233 231 234 242 245 246 244 248 245 243 246 252 249 260 254 250 249 250 253 250
359 357 355 353 352 355 358 4 2 358 344 337 294 306 298 3 3 7 113 281 272 252 245 235 236 235 237 238 239 241 244 244 245 245 242 247 248 247 248 255 245 247 248 246 240
359 357 356 355 357 4 5 8 5 0 359 27 31 25 29 12 21 177 122 188 269 262 249 236 234 235 236 236 234 236 237 244 241 241 246 248 248 245 243 244 248 253 244 246 245
359 358 357 359 4 6 15 6 13 15 16 24 25 29 38 38 231 162 71 168 192 256 252 244 231 234 232 235 233 233 234 240 234 235 239 243 245 242 239 243 245 246 247 241 237
360 358 359 6 5 13 8 7 14 32 32 16 25 25 300 245 249 27 97 150 186 203 245 244 234 231 229 229 231 234 231 232 237 236 241 243 246 243 236 239 237 239 240 239 230
359 359 5 13 9 14 13 18 31 32 23 23 15 298 290 276 67 82 115 138 45 179 208 239 242 235 235 228 229 229 230 228 238 236 239 240 238 244 230 231 232 232 231 230 222
358 1 11 14 10 10 14 33 36 17 9 310 313 304 283 279 210 131 119 131 89 153 186 217 235 238 232 228 220 223 221 217 224 228 233 231 237 251 232 228 226 222 220 221 215
360 3 17 16 12 20 38 50 29 350 314 328 306 301 92 336 257 204 215 174 163 174 156 194 231 228 228 226 218 217 212 213 214 221 226 226 238 234 237 228 229 215 206 212 220
2 19 20 12 19 32 45 34 19 25 313 310 309 302 296 300 286 194 181 117 118 165 136 162 233 225 235 225 221 211 216 219 226 232 234 231 229 226 233 232 211 202 207 223 223
8 16 20 13 29 34 37 47 31 35 327 311 295 291 303 309 296 281 202 27 194 170 168 191 213 210 225 219 225 214 218 217 228 226 231 226 222 232 227 223 219 218 222 225 219
15 16 17 18 34 32 33 258 291 337 311 302 301 280 297 306 299 199 136 164 131 220 180 170 184 203 217 221 215 215 215 220 226 237 224 225 226 235 223 221 218 220 213 203 205
16 14 15 20 27 32 357 293 285 302 309 333 357 277 265 300 263 198 228 81 228 231 138 128 166 160 187 221 221 220 217 216 221 226 233 226 234 252 204 209 198 192 184 176 167
12 13 26 28 24 25 319 283 303 309 308 344 304 328 294 301 262 254 261 297 146 260 100 172 156 161 173 217 213 226 215 216 222 230 226 223 225 206 200 193 185 174 168 160 150
14 12 17 27 34 28 309 305 306 310 310 337 297 307 292 289 250 207 245 238 286 238 187 188 180 174 173 169 199 214 211 213 219 230 226 234 208 207 194 188 179 169 161 156 150
20 18 22 18 27 27 317 290 311 310 30 302 304 306 302 281 277 102 285 276 248 183 232 154 171 161 171 176 177 207 211 210 219 225 230 201 205 200 189 183 174 162 155 149 146
20 19 21 21 28 28 313 309 301 309 306 289 305 304 295 272 261 273 273 263 187 186 179 167 167 169 176 184 182 192 208 207 215 224 246 226 209 194 177 171 170 166 156 150 147
26 26 27 29 27 35 309 301 299 301 335 299 305 299 294 286 279 261 244 233 208 214 217 203 171 170 158 161 158 175 192 207 221 233 234 229 193 167 173 175 171 162 157 152 153